User: anonymous   Login
Location: Newark
(49.8969°N, 3.3422°E)
Time: 01:30:28
(UTC+00:00)
Language:

Envisat - Orbit

View from above orbital plane
View from above orbital plane
View from above satellite
View from above satellite

Ground track
Ground track

The orbit data is extracted from the following two-line orbital elements,

1 27386U 02009A   20023.80877859 -.00000002  00000-0  12931-4 0  9999
2 27386  98.1398  38.4933 0001177  88.4945  84.3536 14.37969295937687
Epoch (UTC): 23 January 2020 19:24:38
Eccentricity: 0.0001177
inclination: 98.1398°
perigee height: 764 km
apogee height: 766 km
right ascension of ascending node: 38.4933°
argument of perigee: 88.4945°
revolutions per day: 14.37969295
mean anomaly at epoch: 84.3536°
orbit number at epoch: 93768

The dashed part of the orbit path shows where the satellite is in the earth's shadow,  

DLR